contact:dominique.lefevre@mio.osupytheas.fr, maurice.libes@osupytheas.fr, didier.mallarino@osupytheas.fr
Project:EMSO http://www.emso-fr.org/EMSO-France
Depth: 2436.0 m
Title:EMSO Ligure Ouest : Data MII capteur AQUADOPP
Date,Latitude,Longitude,X_East,Y_North,Z_Up,Amplitude_X,Amplitude_Y,Amplitude_Z,Batterie,SoundSpeed,Heading,Pitch,Roll,Pressure,TIS,Speed,Direction
, degrees North, degrees East, m.s-1, m.s-1,m.s-1, 1, 1, 1, Volt, m.s-1, degree, degree, degree, dbar, degree_C, m.s-1, degree
2023-10-04T00:04:03,42.805,6.029,0.012,0.005,-0.016,104.0,105.0,102.0,13.4,1505.2,342.4,-0.8,1.8,2472.058,13.28,0.013,67.4
2023-10-04T00:07:03,42.805,6.029,0.019,-0.002,-0.025,105.0,104.0,103.0,13.3,1505.2,340.9,-0.8,1.8,2471.961,13.28,0.019,96.0
2023-10-04T00:10:03,42.805,6.029,0.002,-0.01,-0.027,105.0,104.0,102.0,13.4,1505.2,348.3,-0.8,1.8,2471.881,13.28,0.01,168.7
2023-10-04T00:13:03,42.805,6.029,0.027,-0.002,-0.002,108.0,104.0,103.0,13.4,1505.2,345.9,-0.8,1.8,2471.8,13.28,0.027,94.2
2023-10-04T00:16:03,42.805,6.029,0.0,-0.02,-0.024,104.0,104.0,102.0,13.4,1505.2,342.2,-0.8,1.8,2471.697,13.29,0.02,180.0
2023-10-04T00:19:03,42.805,6.029,0.001,0.011,0.001,103.0,103.0,103.0,13.3,1505.2,328.5,-0.8,1.8,2471.676,13.29,0.011,5.2
2023-10-04T00:22:03,42.805,6.029,0.011,-0.003,-0.049,105.0,104.0,102.0,13.3,1505.2,343.9,-0.8,1.8,2471.648,13.29,0.011,105.3
2023-10-04T00:25:03,42.805,6.029,0.012,0.0,-0.001,104.0,106.0,101.0,13.4,1505.2,348.8,-0.8,1.8,2471.602,13.29,0.012,90.0
2023-10-04T00:28:03,42.805,6.029,0.012,0.004,-0.005,104.0,105.0,103.0,13.4,1505.2,334.2,-0.8,1.8,2471.581,13.29,0.012,71.6
2023-10-04T00:31:03,42.805,6.029,0.026,0.011,-0.02,104.0,104.0,103.0,13.4,1505.2,344.0,-0.7,1.8,2471.549,13.29,0.028,67.1
2023-10-04T00:34:03,42.805,6.029,0.011,-0.018,-0.003,103.0,102.0,103.0,13.4,1505.2,346.4,-0.7,1.8,2471.556,13.29,0.021,148.6
2023-10-04T00:37:03,42.805,6.029,0.008,-0.015,-0.028,104.0,106.0,103.0,13.3,1505.2,357.1,-0.7,1.8,2471.516,13.29,0.017,151.9
2023-10-04T00:40:03,42.805,6.029,0.016,-0.03,-0.021,104.0,104.0,103.0,13.3,1505.2,349.8,-0.7,1.8,2471.547,13.29,0.034,151.9
2023-10-04T00:43:03,42.805,6.029,0.013,-0.014,-0.013,103.0,106.0,103.0,13.4,1505.2,348.0,-0.8,1.8,2471.54,13.29,0.019,137.1
2023-10-04T00:46:03,42.805,6.029,0.016,-0.002,-0.004,104.0,104.0,103.0,13.3,1505.2,338.0,-0.8,1.8,2471.528,13.29,0.016,97.1
2023-10-04T00:49:03,42.805,6.029,0.005,0.0,-0.014,105.0,105.0,103.0,13.3,1505.2,334.7,-0.8,1.8,2471.497,13.29,0.005,90.0
2023-10-04T00:52:03,42.805,6.029,0.017,-0.003,-0.037,104.0,103.0,103.0,13.4,1505.2,349.6,-0.8,1.8,2471.474,13.29,0.017,100.0
2023-10-04T00:55:03,42.805,6.029,0.007,-0.009,-0.025,104.0,104.0,102.0,13.4,1505.2,343.6,-0.8,1.8,2471.504,13.29,0.011,142.1
2023-10-04T00:58:03,42.805,6.029,0.011,0.013,-0.042,104.0,104.0,103.0,13.4,1505.2,341.2,-0.8,1.8,2471.478,13.29,0.017,40.2
2023-10-04T01:04:03,42.805,6.029,0.008,-0.002,-0.013,104.0,105.0,103.0,13.3,1505.2,346.9,-0.8,1.8,2471.525,13.29,0.008,104.0
2023-10-04T01:07:03,42.805,6.029,0.004,-0.023,-0.012,104.0,104.0,102.0,13.4,1505.2,340.4,-0.8,1.8,2471.552,13.29,0.023,170.1
2023-10-04T01:10:03,42.805,6.029,0.0,-0.022,-0.032,104.0,104.0,104.0,13.4,1505.2,346.8,-0.8,1.8,2471.516,13.29,0.022,180.0
2023-10-04T01:13:03,42.805,6.029,0.022,-0.009,-0.069,105.0,105.0,102.0,13.3,1505.2,340.7,-0.7,1.8,2471.535,13.29,0.023,112.2
2023-10-04T01:16:03,42.805,6.029,0.009,0.002,-0.004,105.0,105.0,102.0,13.4,1505.2,345.0,-0.8,1.8,2471.493,13.29,0.009,77.5
2023-10-04T01:19:03,42.805,6.029,0.016,-0.021,-0.013,104.0,104.0,102.0,13.3,1505.2,343.3,-0.8,1.8,2471.473,13.29,0.026,142.7
2023-10-04T01:22:03,42.805,6.029,-0.002,-0.019,-0.027,104.0,105.0,101.0,13.4,1505.2,355.7,-0.7,1.8,2471.492,13.29,0.019,186.0
2023-10-04T01:25:03,42.805,6.029,0.007,-0.005,0.004,104.0,103.0,102.0,13.4,1505.2,336.9,-0.8,1.8,2471.458,13.29,0.008,125.5
2023-10-04T01:28:03,42.805,6.029,0.015,0.0,-0.028,104.0,103.0,103.0,13.4,1505.2,338.9,-0.8,1.8,2471.469,13.29,0.015,90.0
2023-10-04T01:31:03,42.805,6.029,-0.001,-0.004,-0.014,104.0,102.0,102.0,13.4,1505.2,326.8,-0.8,1.8,2471.491,13.29,0.004,194.0
2023-10-04T01:34:03,42.805,6.029,0.018,-0.014,-0.034,103.0,103.0,102.0,13.4,1505.2,355.1,-0.7,1.8,2471.488,13.29,0.022,127.9
2023-10-04T01:37:03,42.805,6.029,0.019,-0.006,-0.048,103.0,102.0,102.0,13.3,1505.2,348.2,-0.8,1.8,2471.454,13.29,0.019,107.5
2023-10-04T01:40:03,42.805,6.029,0.01,-0.013,-0.022,103.0,103.0,101.0,13.4,1505.2,352.7,-0.8,1.8,2471.465,13.29,0.016,142.4
2023-10-04T01:43:03,42.805,6.029,0.017,0.009,0.01,103.0,103.0,101.0,13.4,1505.2,337.2,-0.8,1.8,2471.493,13.29,0.019,62.1
2023-10-04T01:46:03,42.805,6.029,0.007,0.004,-0.029,103.0,103.0,101.0,13.3,1505.2,334.9,-0.8,1.8,2471.454,13.29,0.008,60.3
2023-10-04T01:49:03,42.805,6.029,0.008,0.011,-0.002,104.0,103.0,101.0,13.4,1505.2,339.2,-0.8,1.8,2471.453,13.29,0.013,36.0
2023-10-04T01:52:03,42.805,6.029,0.022,-0.031,-0.035,104.0,104.0,101.0,13.4,1505.2,357.1,-0.7,1.8,2471.486,13.29,0.038,144.6
2023-10-04T01:55:03,42.805,6.029,0.004,-0.018,-0.032,102.0,101.0,102.0,13.4,1505.2,329.6,-0.8,1.8,2471.456,13.29,0.018,167.5
2023-10-04T01:58:03,42.805,6.029,0.006,-0.016,-0.02,103.0,102.0,103.0,13.4,1505.2,357.9,-0.8,1.8,2471.439,13.29,0.017,159.4
2023-10-04T02:04:03,42.805,6.029,0.018,0.009,0.012,101.0,103.0,103.0,13.4,1505.2,335.4,-0.8,1.8,2471.482,13.29,0.02,63.4
2023-10-04T02:07:03,42.805,6.029,-0.008,-0.001,-0.022,103.0,102.0,101.0,13.4,1505.2,349.1,-0.7,1.8,2471.484,13.29,0.008,262.9
2023-10-04T02:10:03,42.805,6.029,0.022,-0.023,-0.03,103.0,103.0,101.0,13.4,1505.2,342.8,-0.8,1.8,2471.485,13.29,0.031,136.3
2023-10-04T02:13:03,42.805,6.029,0.003,-0.024,-0.023,102.0,102.0,102.0,13.4,1505.2,357.9,-0.8,1.8,2471.461,13.29,0.024,172.9
2023-10-04T02:16:03,42.805,6.029,0.013,-0.005,-0.032,102.0,102.0,101.0,13.3,1505.2,348.2,-0.8,1.8,2471.445,13.29,0.013,111.0
2023-10-04T02:19:03,42.805,6.029,-0.005,0.019,-0.012,103.0,100.0,102.0,13.4,1505.2,335.5,-0.7,1.8,2471.477,13.29,0.019,345.3
2023-10-04T02:22:03,42.805,6.029,0.009,-0.008,-0.044,104.0,101.0,101.0,13.4,1505.2,343.4,-0.8,1.8,2471.492,13.29,0.012,131.6
2023-10-04T02:25:03,42.805,6.029,0.005,0.015,0.02,101.0,102.0,101.0,13.4,1505.2,348.2,-0.8,1.8,2471.448,13.29,0.015,18.4
2023-10-04T02:28:03,42.805,6.029,0.017,-0.01,0.013,101.0,103.0,101.0,13.4,1505.2,343.3,-0.8,1.8,2471.496,13.29,0.019,120.5
2023-10-04T02:31:03,42.805,6.029,-0.008,-0.004,-0.042,101.0,103.0,101.0,13.4,1505.2,340.9,-0.8,1.8,2471.487,13.29,0.008,243.4
2023-10-04T02:34:03,42.805,6.029,-0.004,-0.016,-0.04,101.0,103.0,101.0,13.4,1505.2,336.0,-0.8,1.8,2471.489,13.29,0.016,194.0
2023-10-04T02:37:03,42.805,6.029,0.005,0.009,-0.03,105.0,103.0,101.0,13.4,1505.2,335.6,-0.8,1.8,2471.478,13.29,0.01,29.1
2023-10-04T02:40:03,42.805,6.029,0.001,0.017,-0.034,103.0,103.0,101.0,13.4,1505.2,343.8,-0.8,1.8,2471.482,13.29,0.017,3.4
2023-10-04T02:43:03,42.805,6.029,0.0,0.002,-0.034,105.0,102.0,102.0,13.4,1505.2,347.2,-0.7,1.8,2471.465,13.29,0.002,0.0
2023-10-04T02:46:03,42.805,6.029,0.0,-0.007,-0.018,103.0,104.0,103.0,13.3,1505.2,340.8,-0.8,1.8,2471.459,13.29,0.007,180.0
2023-10-04T02:49:03,42.805,6.029,0.0,0.002,0.013,104.0,102.0,101.0,13.4,1505.2,333.4,-0.8,1.8,2471.449,13.29,0.002,0.0
2023-10-04T02:52:03,42.805,6.029,0.013,-0.007,-0.012,102.0,103.0,102.0,13.4,1505.2,335.9,-0.8,1.8,2471.448,13.29,0.014,118.3
2023-10-04T02:55:03,42.805,6.029,0.019,-0.006,-0.031,102.0,103.0,101.0,13.4,1505.2,330.4,-0.8,1.8,2471.421,13.29,0.019,107.5
2023-10-04T02:58:03,42.805,6.029,0.003,-0.006,-0.032,105.0,102.0,101.0,13.3,1505.2,336.8,-0.8,1.8,2471.423,13.29,0.006,153.4
2023-10-04T03:04:03,42.805,6.029,-0.009,0.008,0.016,106.0,102.0,102.0,13.4,1505.2,331.8,-0.8,1.8,2471.479,13.29,0.012,311.6
2023-10-04T03:07:03,42.805,6.029,0.007,0.016,-0.003,105.0,104.0,102.0,13.4,1505.2,344.3,-0.8,1.8,2471.486,13.29,0.017,23.6
2023-10-04T03:10:03,42.805,6.029,0.007,0.01,-0.026,105.0,103.0,100.0,13.3,1505.2,344.2,-0.7,1.8,2471.449,13.29,0.012,35.0
2023-10-04T03:13:03,42.805,6.029,0.017,0.005,0.001,104.0,103.0,103.0,13.4,1505.2,335.0,-0.8,1.8,2471.491,13.29,0.017,73.6
2023-10-04T03:16:03,42.805,6.029,0.018,-0.009,-0.027,105.0,104.0,102.0,13.4,1505.2,329.9,-0.8,1.8,2471.498,13.29,0.02,116.6
2023-10-04T03:19:03,42.805,6.029,0.005,0.029,0.032,105.0,102.0,101.0,13.3,1505.2,339.8,-0.8,1.8,2471.442,13.29,0.029,9.8
2023-10-04T03:22:03,42.805,6.029,0.004,0.029,0.023,104.0,103.0,102.0,13.3,1505.2,326.8,-0.8,1.8,2471.473,13.29,0.029,7.8
2023-10-04T03:25:03,42.805,6.029,0.018,-0.01,0.026,104.0,103.0,102.0,13.3,1505.2,349.5,-0.8,1.8,2471.44,13.29,0.02,119.1
2023-10-04T03:28:03,42.805,6.029,0.013,0.0,-0.051,103.0,103.0,102.0,13.3,1505.2,334.2,-0.8,1.8,2471.414,13.29,0.013,90.0
2023-10-04T03:31:03,42.805,6.029,0.011,-0.035,-0.039,104.0,106.0,102.0,13.4,1505.2,350.1,-0.7,1.8,2471.443,13.29,0.036,162.6
2023-10-04T03:34:03,42.805,6.029,0.02,-0.017,0.002,105.0,103.0,103.0,13.4,1505.2,333.4,-0.8,1.9,2471.441,13.29,0.026,130.4
2023-10-04T03:37:03,42.805,6.029,0.016,0.0,0.0,103.0,104.0,103.0,13.4,1505.2,338.5,-0.7,1.8,2471.463,13.29,0.016,90.0
2023-10-04T03:40:03,42.805,6.029,0.015,0.004,-0.004,104.0,104.0,102.0,13.4,1505.2,347.7,-0.8,1.8,2471.476,13.29,0.015,75.1
2023-10-04T03:43:03,42.805,6.029,-0.006,0.006,-0.023,104.0,104.0,102.0,13.3,1505.2,336.1,-0.8,1.8,2471.423,13.29,0.008,315.0
2023-10-04T03:46:03,42.805,6.029,0.035,-0.008,-0.017,103.0,104.0,102.0,13.4,1505.2,338.9,-0.8,1.8,2471.451,13.29,0.035,102.9
2023-10-04T03:49:03,42.805,6.029,0.01,-0.013,-0.008,103.0,103.0,103.0,13.4,1505.2,341.5,-0.8,1.8,2471.441,13.29,0.016,142.4
2023-10-04T03:52:03,42.805,6.029,0.009,-0.003,-0.012,103.0,102.0,102.0,13.3,1505.2,330.0,-0.8,1.8,2471.445,13.29,0.009,108.4
2023-10-04T03:55:03,42.805,6.029,0.012,0.01,0.004,104.0,104.0,103.0,13.4,1505.2,338.2,-0.8,1.8,2471.442,13.29,0.015,50.2
2023-10-04T03:58:03,42.805,6.029,0.025,0.003,-0.009,103.0,103.0,101.0,13.4,1505.2,334.9,-0.8,1.8,2471.415,13.29,0.025,83.2
2023-10-04T04:04:03,42.805,6.029,0.0,-0.016,-0.01,104.0,104.0,102.0,13.3,1505.2,338.7,-0.8,1.8,2471.46,13.29,0.016,180.0
2023-10-04T04:07:03,42.805,6.029,0.017,0.017,-0.023,104.0,104.0,100.0,13.4,1505.2,342.2,-0.8,1.8,2471.497,13.29,0.024,45.0
2023-10-04T04:10:03,42.805,6.029,0.008,-0.009,-0.014,104.0,104.0,102.0,13.3,1505.2,345.4,-0.7,1.8,2471.476,13.29,0.012,138.4
2023-10-04T04:13:03,42.805,6.029,0.019,-0.018,-0.019,105.0,106.0,101.0,13.3,1505.2,335.2,-0.8,1.8,2471.46,13.29,0.026,133.5
2023-10-04T04:16:03,42.805,6.029,0.005,0.008,-0.011,102.0,105.0,102.0,13.3,1505.2,337.5,-0.8,1.8,2471.466,13.29,0.009,32.0
2023-10-04T04:19:03,42.805,6.029,0.014,-0.007,-0.018,102.0,104.0,103.0,13.3,1505.2,335.2,-0.7,1.8,2471.456,13.29,0.015,116.6
2023-10-04T04:22:03,42.805,6.029,0.025,-0.007,0.0,104.0,104.0,101.0,13.3,1505.2,342.9,-0.7,1.8,2471.44,13.29,0.025,105.6
2023-10-04T04:25:03,42.805,6.029,0.02,-0.006,-0.025,105.0,104.0,103.0,13.4,1505.2,328.5,-0.8,1.8,2471.447,13.29,0.02,106.7
2023-10-04T04:28:03,42.805,6.029,0.028,-0.009,-0.028,104.0,104.0,103.0,13.3,1505.2,336.8,-0.7,1.8,2471.428,13.29,0.029,107.8
2023-10-04T04:31:03,42.805,6.029,0.005,-0.013,-0.008,104.0,105.0,102.0,13.3,1505.2,336.9,-0.8,1.8,2471.446,13.29,0.013,159.0
2023-10-04T04:34:03,42.805,6.029,0.006,-0.013,-0.015,103.0,103.0,102.0,13.3,1505.2,337.3,-0.8,1.8,2471.431,13.29,0.014,155.2
2023-10-04T04:37:03,42.805,6.029,0.01,-0.019,-0.022,104.0,103.0,102.0,13.3,1505.2,332.0,-0.7,1.8,2471.427,13.29,0.021,152.2
2023-10-04T04:40:03,42.805,6.029,0.017,0.012,0.008,104.0,103.0,101.0,13.4,1505.2,355.7,-0.8,1.8,2471.428,13.29,0.02,54.8
2023-10-04T04:43:03,42.805,6.029,0.023,-0.002,-0.03,104.0,103.0,102.0,13.3,1505.2,328.8,-0.7,1.8,2471.449,13.29,0.023,95.0
2023-10-04T04:46:03,42.805,6.029,0.011,-0.008,-0.037,104.0,104.0,102.0,13.4,1505.2,351.0,-0.8,1.8,2471.427,13.29,0.013,126.0
2023-10-04T04:49:03,42.805,6.029,0.003,0.001,-0.025,106.0,103.0,101.0,13.4,1505.2,337.2,-0.8,1.8,2471.438,13.29,0.003,71.6
2023-10-04T04:52:03,42.805,6.029,-0.012,0.003,-0.045,105.0,103.0,101.0,13.3,1505.2,336.0,-0.8,1.8,2471.417,13.29,0.012,284.0
2023-10-04T04:55:03,42.805,6.029,0.021,0.001,-0.002,104.0,104.0,102.0,13.4,1505.2,328.2,-0.8,1.8,2471.435,13.29,0.021,87.3
2023-10-04T04:58:03,42.805,6.029,0.027,0.003,0.021,103.0,103.0,103.0,13.3,1505.2,339.3,-0.8,1.8,2471.405,13.29,0.027,83.7
2023-10-04T05:04:03,42.805,6.029,0.013,0.003,-0.033,106.0,104.0,102.0,13.3,1505.2,339.1,-0.8,1.8,2471.518,13.29,0.013,77.0
2023-10-04T05:07:03,42.805,6.029,0.013,0.019,0.002,104.0,104.0,103.0,13.4,1505.2,336.0,-0.8,1.8,2471.496,13.29,0.023,34.4
2023-10-04T05:10:03,42.805,6.029,0.005,-0.011,-0.028,103.0,103.0,102.0,13.4,1505.2,337.5,-0.8,1.8,2471.464,13.29,0.012,155.6
2023-10-04T05:13:03,42.805,6.029,0.012,0.007,-0.038,104.0,104.0,102.0,13.3,1505.2,331.8,-0.7,1.8,2471.488,13.29,0.013,59.7
2023-10-04T05:16:03,42.805,6.029,-0.008,0.008,-0.045,103.0,102.0,102.0,13.4,1505.2,341.9,-0.8,1.8,2471.494,13.29,0.011,315.0
2023-10-04T05:19:03,42.805,6.029,0.003,-0.006,0.007,103.0,103.0,102.0,13.4,1505.2,333.8,-0.8,1.8,2471.463,13.29,0.006,153.4
2023-10-04T05:22:03,42.805,6.029,0.015,-0.013,0.021,104.0,102.0,101.0,13.4,1505.2,355.9,-0.7,1.8,2471.452,13.29,0.019,130.9
2023-10-04T05:25:03,42.805,6.029,0.01,0.01,0.008,104.0,103.0,101.0,13.4,1505.2,327.3,-0.8,1.8,2471.451,13.29,0.014,45.0
2023-10-04T05:28:03,42.805,6.029,0.008,-0.003,-0.027,105.0,102.0,103.0,13.4,1505.2,349.3,-0.8,1.8,2471.436,13.29,0.008,110.6
2023-10-04T05:31:03,42.805,6.029,0.0,-0.006,-0.019,103.0,103.0,101.0,13.3,1505.2,330.3,-0.7,1.8,2471.416,13.29,0.006,180.0
2023-10-04T05:34:03,42.805,6.029,0.004,0.01,-0.009,104.0,103.0,102.0,13.4,1505.2,345.7,-0.8,1.8,2471.437,13.29,0.01,21.8
2023-10-04T05:37:03,42.805,6.029,-0.002,0.016,0.016,103.0,104.0,100.0,13.4,1505.2,338.3,-0.8,1.8,2471.416,13.29,0.016,352.9
2023-10-04T05:40:03,42.805,6.029,0.013,0.014,-0.028,104.0,103.0,100.0,13.4,1505.2,353.8,-0.8,1.8,2471.426,13.29,0.019,42.9
2023-10-04T05:43:03,42.805,6.029,0.004,-0.004,-0.024,108.0,103.0,101.0,13.4,1505.2,344.9,-0.8,1.8,2471.445,13.29,0.005,135.0
2023-10-04T05:46:03,42.805,6.029,0.008,-0.007,-0.016,102.0,103.0,102.0,13.3,1505.2,355.3,-0.8,1.8,2471.418,13.29,0.01,131.2
2023-10-04T05:49:03,42.805,6.029,-0.013,-0.009,-0.021,103.0,103.0,102.0,13.4,1505.2,341.3,-0.8,1.8,2471.43,13.29,0.015,235.3
2023-10-04T05:52:03,42.805,6.029,-0.008,0.002,-0.038,102.0,104.0,102.0,13.4,1505.2,334.7,-0.7,1.8,2471.488,13.29,0.008,284.0
2023-10-04T05:55:03,42.805,6.029,-0.009,0.012,-0.009,103.0,102.0,101.0,13.3,1505.2,335.2,-0.8,1.8,2471.46,13.29,0.015,323.1
2023-10-04T05:58:03,42.805,6.029,0.014,-0.008,-0.012,104.0,104.0,102.0,13.4,1505.2,355.1,-0.8,1.8,2471.478,13.29,0.016,119.7
2023-10-04T06:04:03,42.805,6.029,0.007,-0.003,-0.027,108.0,103.0,101.0,13.4,1505.2,338.4,-0.8,1.8,2471.482,13.29,0.007,113.2
2023-10-04T06:07:03,42.805,6.029,-0.011,0.001,-0.023,104.0,103.0,102.0,13.4,1505.2,344.1,-0.8,1.8,2471.496,13.29,0.011,275.2
2023-10-04T06:10:03,42.805,6.029,-0.001,-0.006,-0.011,103.0,102.0,101.0,13.4,1505.2,338.9,-0.8,1.8,2471.483,13.29,0.006,189.5
2023-10-04T06:13:03,42.805,6.029,0.015,0.006,0.015,103.0,104.0,100.0,13.3,1505.2,328.7,-0.8,1.8,2471.49,13.29,0.016,68.2
2023-10-04T06:16:03,42.805,6.029,0.0,0.0,-0.008,103.0,103.0,102.0,13.4,1505.2,340.2,-0.8,1.8,2471.45,13.29,0.0,0.0
2023-10-04T06:19:03,42.805,6.029,0.006,0.005,0.003,103.0,103.0,102.0,13.4,1505.2,327.8,-0.7,1.8,2471.472,13.29,0.007,50.2
2023-10-04T06:22:03,42.805,6.029,0.014,0.001,-0.019,103.0,104.0,100.0,13.4,1505.2,356.1,-0.7,1.8,2471.493,13.29,0.014,85.9
2023-10-04T06:25:03,42.805,6.029,-0.003,0.007,-0.005,105.0,103.0,102.0,13.3,1505.2,341.2,-0.8,1.8,2471.477,13.29,0.007,336.8
2023-10-04T06:28:03,42.805,6.029,0.014,-0.006,-0.021,103.0,103.0,101.0,13.4,1505.2,330.7,-0.7,1.8,2471.446,13.29,0.015,113.2
2023-10-04T06:31:03,42.805,6.029,0.004,0.003,-0.044,103.0,104.0,102.0,13.4,1505.2,337.4,-0.7,1.8,2471.483,13.29,0.005,53.1
2023-10-04T06:34:03,42.805,6.029,-0.008,-0.007,-0.032,104.0,104.0,101.0,13.4,1505.2,350.2,-0.8,1.8,2471.494,13.29,0.01,228.8
2023-10-04T06:37:03,42.805,6.029,0.015,-0.012,-0.04,102.0,105.0,101.0,13.4,1505.2,338.7,-0.8,1.8,2471.515,13.29,0.019,128.7
2023-10-04T06:40:03,42.805,6.029,0.011,0.001,-0.034,102.0,104.0,101.0,13.3,1505.2,337.7,-0.7,1.8,2471.494,13.29,0.011,84.8
2023-10-04T06:43:03,42.805,6.029,0.009,-0.009,-0.017,104.0,102.0,103.0,13.3,1505.2,335.7,-0.8,1.8,2471.474,13.29,0.012,135.0
2023-10-04T06:46:03,42.805,6.029,-0.013,0.011,-0.026,103.0,103.0,102.0,13.4,1505.2,336.1,-0.8,1.9,2471.474,13.29,0.017,310.2
2023-10-04T06:49:03,42.805,6.029,-0.015,0.008,-0.009,103.0,103.0,102.0,13.4,1505.2,334.3,-0.8,1.8,2471.489,13.29,0.017,298.1
2023-10-04T06:52:03,42.805,6.029,0.005,0.013,-0.004,104.0,104.0,102.0,13.3,1505.2,332.1,-0.8,1.8,2471.502,13.3,0.013,21.0
2023-10-04T06:55:03,42.805,6.029,0.007,0.003,-0.009,103.0,104.0,109.0,13.4,1505.2,356.8,-0.8,1.8,2471.492,13.3,0.007,66.8
2023-10-04T06:58:03,42.805,6.029,0.012,-0.004,-0.002,104.0,103.0,102.0,13.3,1505.2,349.0,-0.8,1.8,2471.475,13.3,0.012,108.4
2023-10-04T07:04:03,42.805,6.029,-0.005,-0.003,-0.022,104.0,103.0,102.0,13.3,1505.2,347.7,-0.8,1.8,2471.577,13.3,0.005,239.0
2023-10-04T07:07:03,42.805,6.029,0.012,-0.001,0.003,105.0,103.0,102.0,13.3,1505.2,344.8,-0.7,1.8,2471.551,13.3,0.012,94.8
2023-10-04T07:10:03,42.805,6.029,-0.018,0.021,-0.016,103.0,104.0,102.0,13.4,1505.2,339.1,-0.8,1.8,2471.568,13.3,0.027,319.4
2023-10-04T07:13:03,42.805,6.029,0.026,-0.027,-0.021,103.0,102.0,102.0,13.3,1505.2,332.5,-0.8,1.9,2471.51,13.3,0.037,136.1
2023-10-04T07:16:03,42.805,6.029,-0.005,0.016,-0.017,103.0,104.0,103.0,13.3,1505.2,339.1,-0.8,1.8,2471.537,13.3,0.016,342.6
2023-10-04T07:19:03,42.805,6.029,-0.007,0.032,0.01,104.0,104.0,100.0,13.3,1505.3,331.2,-0.8,1.8,2471.535,13.31,0.032,347.7
2023-10-04T07:22:03,42.805,6.029,-0.005,0.016,-0.003,104.0,100.0,103.0,13.4,1505.3,349.1,-0.8,1.8,2471.513,13.31,0.016,342.6
2023-10-04T07:25:03,42.805,6.029,-0.001,0.014,-0.018,104.0,103.0,101.0,13.3,1505.3,346.2,-0.8,1.8,2471.484,13.31,0.014,355.9
2023-10-04T07:28:03,42.805,6.029,0.015,0.005,0.0,102.0,103.0,101.0,13.3,1505.3,328.4,-0.8,1.8,2471.483,13.31,0.015,71.6
2023-10-04T07:31:03,42.805,6.029,-0.005,0.006,-0.001,103.0,104.0,101.0,13.4,1505.3,339.0,-0.8,1.8,2471.542,13.31,0.007,320.2
2023-10-04T07:34:03,42.805,6.029,-0.008,0.018,-0.013,104.0,101.0,102.0,13.4,1505.2,337.2,-0.8,1.8,2471.539,13.3,0.019,336.0
2023-10-04T07:37:03,42.805,6.029,-0.001,0.012,-0.008,103.0,102.0,102.0,13.4,1505.2,334.7,-0.7,1.8,2471.555,13.3,0.012,355.2
2023-10-04T07:40:03,42.805,6.029,-0.009,0.014,-0.002,103.0,103.0,101.0,13.4,1505.2,327.0,-0.8,1.8,2471.532,13.3,0.016,327.3
2023-10-04T07:43:03,42.805,6.029,0.011,-0.013,-0.017,103.0,103.0,101.0,13.4,1505.2,337.1,-0.8,1.8,2471.564,13.3,0.017,139.8
2023-10-04T07:46:03,42.805,6.029,0.002,0.004,-0.018,103.0,102.0,102.0,13.4,1505.2,332.2,-0.8,1.8,2471.525,13.3,0.004,26.6
2023-10-04T07:49:03,42.805,6.029,0.005,-0.003,-0.011,104.0,103.0,101.0,13.4,1505.2,336.8,-0.8,1.8,2471.533,13.3,0.005,121.0
2023-10-04T07:52:03,42.805,6.029,0.004,0.009,-0.03,104.0,103.0,103.0,13.3,1505.2,356.9,-0.8,1.8,2471.529,13.3,0.009,24.0
2023-10-04T07:55:03,42.805,6.029,-0.028,0.012,-0.038,103.0,103.0,104.0,13.4,1505.2,348.3,-0.7,1.8,2471.553,13.3,0.03,293.2
2023-10-04T07:58:03,42.805,6.029,0.001,-0.004,-0.013,105.0,103.0,101.0,13.4,1505.2,339.0,-0.7,1.8,2471.561,13.3,0.004,166.0
2023-10-04T08:04:03,42.805,6.029,0.008,0.013,-0.013,107.0,101.0,101.0,13.4,1505.2,333.8,-0.8,1.8,2471.605,13.3,0.015,31.6
2023-10-04T08:07:03,42.805,6.029,0.018,-0.01,-0.02,104.0,102.0,102.0,13.4,1505.2,347.7,-0.8,1.8,2471.602,13.3,0.02,119.1
2023-10-04T08:10:03,42.805,6.029,-0.014,-0.01,-0.032,104.0,101.0,102.0,13.4,1505.2,335.5,-0.8,1.8,2471.592,13.3,0.017,234.5
2023-10-04T08:13:03,42.805,6.029,-0.027,0.015,-0.013,102.0,102.0,101.0,13.4,1505.2,335.4,-0.8,1.8,2471.596,13.3,0.03,299.1
2023-10-04T08:16:03,42.805,6.029,0.003,0.013,-0.014,102.0,101.0,102.0,13.4,1505.2,337.8,-0.8,1.8,2471.605,13.3,0.013,13.0
2023-10-04T08:19:03,42.805,6.029,-0.009,0.016,0.016,102.0,103.0,103.0,13.4,1505.2,345.1,-0.8,1.8,2471.573,13.3,0.018,330.6
2023-10-04T08:22:03,42.805,6.029,0.01,0.008,-0.029,106.0,103.0,102.0,13.4,1505.2,355.8,-0.8,1.8,2471.585,13.3,0.012,51.3
2023-10-04T08:25:03,42.805,6.029,-0.004,-0.004,-0.019,101.0,104.0,102.0,13.4,1505.2,346.7,-0.8,1.8,2471.594,13.3,0.005,225.0
2023-10-04T08:28:03,42.805,6.029,-0.005,0.014,-0.015,103.0,103.0,101.0,13.4,1505.2,348.2,-0.8,1.8,2471.572,13.3,0.014,340.4
2023-10-04T08:31:03,42.805,6.029,-0.008,0.006,-0.002,103.0,105.0,102.0,13.3,1505.2,348.6,-0.8,1.8,2471.607,13.3,0.01,306.9
2023-10-04T08:34:03,42.805,6.029,-0.012,0.007,0.0,102.0,104.0,106.0,13.4,1505.2,328.0,-0.8,1.9,2471.605,13.3,0.013,300.3
2023-10-04T08:37:03,42.805,6.029,-0.013,-0.002,-0.035,102.0,102.0,103.0,13.4,1505.2,342.2,-0.8,1.8,2471.589,13.3,0.013,261.3
2023-10-04T08:40:03,42.805,6.029,0.013,-0.009,-0.032,102.0,104.0,103.0,13.4,1505.2,353.5,-0.8,1.8,2471.565,13.3,0.015,124.7
2023-10-04T08:43:03,42.805,6.029,-0.005,0.005,-0.024,100.0,102.0,102.0,13.4,1505.2,330.2,-0.8,1.8,2471.577,13.3,0.007,315.0
2023-10-04T08:46:03,42.805,6.029,0.001,-0.011,-0.012,101.0,104.0,104.0,13.4,1505.2,335.1,-0.8,1.8,2471.614,13.3,0.011,174.8
2023-10-04T08:49:03,42.805,6.029,0.0,0.028,-0.033,104.0,103.0,101.0,13.4,1505.2,337.2,-0.8,1.8,2471.611,13.3,0.028,0.0
2023-10-04T08:52:03,42.805,6.029,-0.01,0.017,-0.023,102.0,102.0,100.0,13.4,1505.2,337.6,-0.8,1.8,2471.6,13.3,0.019,329.5
2023-10-04T08:55:03,42.805,6.029,-0.014,0.021,0.015,103.0,104.0,101.0,13.4,1505.2,332.1,-0.8,1.8,2471.597,13.3,0.025,326.3
2023-10-04T08:58:03,42.805,6.029,0.005,0.006,-0.035,103.0,104.0,102.0,13.4,1505.2,332.1,-0.8,1.8,2471.614,13.3,0.007,39.8
2023-10-04T09:04:03,42.805,6.029,0.004,-0.003,-0.032,104.0,103.0,102.0,13.4,1505.2,344.3,-0.8,1.9,2471.662,13.29,0.005,126.9
2023-10-04T09:07:03,42.805,6.029,0.011,0.004,-0.014,105.0,103.0,101.0,13.4,1505.2,348.4,-0.8,1.8,2471.636,13.29,0.011,70.0
2023-10-04T09:10:03,42.805,6.029,0.009,0.015,-0.006,109.0,102.0,102.0,13.4,1505.2,337.3,-0.8,1.8,2471.629,13.3,0.017,31.0
2023-10-04T09:13:03,42.805,6.029,-0.015,0.003,-0.01,102.0,104.0,103.0,13.3,1505.2,339.9,-0.8,1.9,2471.625,13.3,0.015,281.3
2023-10-04T09:16:03,42.805,6.029,0.004,-0.008,-0.015,104.0,103.0,103.0,13.3,1505.2,350.2,-0.8,1.8,2471.613,13.3,0.008,153.4
2023-10-04T09:19:03,42.805,6.029,-0.005,0.0,-0.009,103.0,103.0,102.0,13.4,1505.2,329.4,-0.8,1.8,2471.617,13.3,0.005,270.0
2023-10-04T09:22:03,42.805,6.029,-0.015,0.009,-0.001,104.0,103.0,102.0,13.4,1505.2,334.6,-0.8,1.8,2471.571,13.3,0.017,301.0
2023-10-04T09:25:03,42.805,6.029,0.02,-0.02,-0.047,104.0,104.0,102.0,13.3,1505.2,345.4,-0.8,1.8,2471.613,13.3,0.028,135.0
2023-10-04T09:28:03,42.805,6.029,-0.006,0.03,-0.008,101.0,103.0,102.0,13.4,1505.2,357.9,-0.8,1.8,2471.597,13.3,0.03,348.7
2023-10-04T09:31:03,42.805,6.029,-0.006,-0.015,-0.054,104.0,104.0,99.0,13.3,1505.2,335.6,-0.8,1.8,2471.622,13.3,0.016,201.8
2023-10-04T09:34:03,42.805,6.029,0.02,0.006,-0.006,104.0,103.0,102.0,13.4,1505.2,333.8,-0.8,1.8,2471.634,13.3,0.02,73.3
2023-10-04T09:37:03,42.805,6.029,0.006,0.0,-0.032,103.0,103.0,102.0,13.3,1505.2,345.0,-0.7,1.8,2471.641,13.3,0.006,90.0
2023-10-04T09:40:03,42.805,6.029,-0.005,0.012,-0.042,104.0,105.0,101.0,13.4,1505.2,344.3,-0.8,1.8,2471.646,13.3,0.013,337.4
2023-10-04T09:43:03,42.805,6.029,0.011,0.014,-0.028,104.0,103.0,102.0,13.4,1505.2,357.0,-0.7,1.9,2471.613,13.3,0.017,38.2
2023-10-04T09:46:03,42.805,6.029,0.025,0.016,-0.045,105.0,102.0,101.0,13.3,1505.2,338.4,-0.8,1.8,2471.617,13.3,0.029,57.4
2023-10-04T09:49:03,42.805,6.029,-0.001,0.02,0.023,102.0,102.0,102.0,13.3,1505.2,333.0,-0.8,1.8,2471.613,13.3,0.02,357.1
2023-10-04T09:52:03,42.805,6.029,0.005,-0.001,0.005,104.0,102.0,102.0,13.3,1505.2,328.0,-0.8,1.8,2471.61,13.3,0.005,101.3
2023-10-04T09:55:03,42.805,6.029,0.011,-0.005,-0.026,103.0,103.0,101.0,13.3,1505.2,336.6,-0.8,1.8,2471.61,13.3,0.012,114.4
2023-10-04T09:58:03,42.805,6.029,0.007,-0.018,-0.02,104.0,103.0,101.0,13.4,1505.2,345.4,-0.7,1.8,2471.599,13.3,0.019,158.8